Location: Worth Mountain WMA
(34.9569°N, 81.4819°W)
Time: 10:05:50
(UTC-04:00)

Amateur Radio Satellites - All Passes

Search period start: 02 September 2014 09:35
Search period end: 03 September 2014 09:35
Location: Worth Mountain WMA, 34.9569°N, 81.4819°W

Satellite Date Start Highest point End Downlink Frequencies (MHz)
Time Altitude Azimuth
ISS 02 Sep 09:45:53 09:49:11 73° 136° (SE) 09:52:30 145.800 FM
PANSAT 02 Sep 09:52:21 09:52:49 10° 157° (SSE) 09:53:16 not established
UKube-1 02 Sep 09:59:59 10:02:58 18° 95° (E) 10:05:55 145.840 MHz, 145.915 MHz
Oscar 11 02 Sep 10:04:08 10:06:05 13° 92° (E) 10:08:01 145.825 FM, Beacon 2401.500 USB
HO-68 02 Sep 10:04:40 10:11:34 49° 101° (E) 10:18:26 435.675 MHz FM
FUNcube-1 02 Sep 10:37:21 10:39:15 12° 92° (E) 10:41:10 145.950 - 145.970 MHz USB
KITSAT 1 02 Sep 11:14:12 11:18:40 16° 259° (W) 11:23:08 435.175 FM
ISS 02 Sep 11:24:24 11:26:15 14° 332° (NNW) 11:28:07 145.800 FM
PANSAT 02 Sep 11:29:15 11:32:24 24° 169° (S) 11:35:34 not established
UKube-1 02 Sep 11:35:19 11:39:12 32° 289° (WNW) 11:43:03 145.840 MHz, 145.915 MHz
Oscar 11 02 Sep 11:38:17 11:42:28 45° 286° (WNW) 11:46:36 145.825 FM, Beacon 2401.500 USB
HO-68 02 Sep 11:53:01 11:58:54 29° 297° (WNW) 12:04:47 435.675 MHz FM
SO-50 02 Sep 11:56:29 12:00:17 23° 51° (NE) 12:04:06 436.795 FM
RS-15 02 Sep 11:56:57 12:01:45 13° 343° (NNW) 12:06:34 29.354 - 29.394 USB, Beacon 29.352 USB
FUNcube-1 02 Sep 12:11:26 12:15:52 52° 285° (WNW) 12:20:21 145.950 - 145.970 MHz USB
MaSat-1 02 Sep 12:53:28 12:58:10 56° 109° (ESE) 13:03:11 437.345 MHz
Oscar 16 02 Sep 12:53:39 12:56:01 13° 63° (ENE) 12:58:23 437.025 USB, Beacon 2401.1428
PANSAT 02 Sep 13:08:44 13:12:11 31° 182° (S) 13:15:37 not established
AO-27 02 Sep 13:27:36 13:29:20 12° 62° (ENE) 13:31:03 436.795 MHz FM
SO-50 02 Sep 13:36:28 13:40:57 39° 246° (WSW) 13:45:27 436.795 FM
UOSAT-12 02 Sep 13:40:41 13:44:10 20° 49° (NE) 13:47:35 437.025 FM, 437.400 FM
Oscar 10/S400 02 Sep 13:48:13 09:35:20 14° 230° (SW) 14:11:01 145.825 - 145.975 CW/USB, Beacon 145.810 USB
Oscar 19 02 Sep 13:54:21 13:59:21 52° 73° (ENE) 14:04:22 437.125 CW, 437.150 USB
AO-Echo 02 Sep 13:59:57 14:04:05 26° 70° (ENE) 14:08:07 ?
Gurwin Techsat 1B 02 Sep 14:10:55 14:13:34 14° 63° (ENE) 14:16:13 435.225 FM
JAS-1B 02 Sep 14:11:29 14:20:38 48° 69° (ENE) 14:28:53 435.800 - 435.900 CW/SSB
RS-15 02 Sep 14:15:31 14:21:14 15° 22° (NNE) 14:27:01 29.354 - 29.394 USB, Beacon 29.352 USB
Oscar 16 02 Sep 14:29:38 14:34:44 67° 258° (WSW) 14:39:54 437.025 USB, Beacon 2401.1428
MaSat-1 02 Sep 14:32:17 14:35:34 17° 306° (NW) 14:38:55 437.345 MHz
ITAMSAT 1 02 Sep 14:33:19 14:38:20 54° 73° (ENE) 14:43:21 435.822 SSB
Uribyol 2 02 Sep 14:42:24 14:47:30 71° 75° (ENE) 14:52:39 436.500 FM
AO-7 02 Sep 14:44:43 14:46:52 11° 50° (NE) 14:49:00 29.400 - 29.500 MHz
PANSAT 02 Sep 14:49:00 14:51:55 21° 194° (SSW) 14:54:51 not established
TMSAT-1 02 Sep 14:58:22 15:02:52 29° 69° (ENE) 15:07:23 436.925 FM
AO-27 02 Sep 15:02:59 15:08:09 76° 257° (WSW) 15:13:20 436.795 MHz FM
UOSAT-12 02 Sep 15:20:02 15:24:30 43° 246° (WSW) 15:28:53 437.025 FM, 437.400 FM
PCSat 02 Sep 15:35:28 15:38:36 16° 104° (ESE) 15:41:45 145.825 MHz
Oscar 19 02 Sep 15:35:57 15:38:57 15° 267° (W) 15:41:57 437.125 CW, 437.150 USB
AO-Echo 02 Sep 15:38:24 15:42:43 29° 263° (W) 15:46:58 ?
Gurwin Techsat 1B 02 Sep 15:47:40 15:52:55 65° 259° (WSW) 15:58:13 435.225 FM
JAS-1B 02 Sep 16:01:58 16:10:59 41° 262° (W) 16:19:17 435.800 - 435.900 CW/SSB
ITAMSAT 1 02 Sep 16:15:13 16:18:05 15° 267° (W) 16:20:59 435.822 SSB
ISS 02 Sep 16:17:48 16:20:27 22° 33° (NNE) 16:23:06 145.800 FM
Uribyol 2 02 Sep 16:26:14 16:27:25 11° 269° (W) 16:28:37 436.500 FM
RS-15 02 Sep 16:26:46 16:37:23 48° 52° (NE) 16:48:21 29.354 - 29.394 USB, Beacon 29.352 USB
AO-7 02 Sep 16:29:48 16:37:58 62° 68° (ENE) 16:46:07 29.400 - 29.500 MHz
Uosat F 02 Sep 16:30:52 16:35:34 42° 72° (ENE) 16:40:16 435.120 FM
TMSAT-1 02 Sep 16:38:08 16:42:41 29° 263° (W) 16:47:15 436.925 FM
Sapphire 02 Sep 16:46:56 16:52:17 72° 114° (ESE) 16:57:42 437.095 MHz 1200 baud AX-25 AFSK
PCSat 02 Sep 17:16:10 17:21:28 57° 299° (WNW) 17:26:49 145.825 MHz
ISS 02 Sep 17:54:11 17:57:14 34° 228° (SW) 18:00:16 145.800 FM
OPAL 02 Sep 18:06:25 18:11:40 89° 106° (ESE) 18:16:51 ?
Uosat F 02 Sep 18:11:06 18:14:29 18° 266° (W) 18:17:53 435.120 FM
JAS-2 02 Sep 18:23:38 18:29:40 60° 74° (ENE) 18:35:05 435.800 - 435.900 CW/SSB, 435.910 FM
AO-7 02 Sep 18:24:33 18:31:06 26° 264° (W) 18:37:42 29.400 - 29.500 MHz
Sapphire 02 Sep 18:33:07 18:36:15 15° 311° (NW) 18:39:24 437.095 MHz 1200 baud AX-25 AFSK
RS-15 02 Sep 18:39:16 18:49:40 47° 251° (WSW) 19:00:31 29.354 - 29.394 USB, Beacon 29.352 USB
Hamsat 02 Sep 18:50:01 18:54:18 69° 259° (W) 18:58:39 145.90 MHz
SO-67 02 Sep 19:09:58 19:12:33 20° 72° (ENE) 19:15:08 435.3500 MHz FM
OPAL 02 Sep 19:49:07 19:49:44 10° 301° (WNW) 19:50:21 ?
STRAND 1 02 Sep 19:55:23 20:00:22 51° 100° (E) 20:05:19 ?
JAS-2 02 Sep 20:11:29 20:14:56 16° 265° (W) 20:18:14 435.800 - 435.900 CW/SSB, 435.910 FM
HO-68 02 Sep 20:30:40 20:36:22 27° 63° (ENE) 20:42:04 435.675 MHz FM
SO-67 02 Sep 20:43:08 20:45:29 17° 265° (W) 20:47:52 435.3500 MHz FM
UKube-1 02 Sep 20:54:25 20:55:38 11° 65° (ENE) 20:56:52 145.840 MHz, 145.915 MHz
Saudisat 1A 02 Sep 21:17:04 21:19:47 16° 109° (ESE) 21:22:31 436.775 MHz
STRAND 1 02 Sep 21:35:57 21:39:06 17° 295° (WNW) 21:42:14 ?
KITSAT 1 02 Sep 21:49:25 21:53:52 16° 101° (E) 21:58:19 435.175 FM
HO-68 02 Sep 22:16:43 22:23:37 53° 259° (WSW) 22:30:34 435.675 MHz FM
UKube-1 02 Sep 22:27:03 22:31:19 57° 259° (W) 22:35:35 145.840 MHz, 145.915 MHz
Oscar 11 02 Sep 22:29:35 22:33:55 90° 76° (ENE) 22:38:17 145.825 FM, Beacon 2401.500 USB
MaSat-1 02 Sep 22:51:25 22:55:43 57° 64° (ENE) 22:59:23 437.345 MHz
Saudisat 1A 02 Sep 22:54:50 22:59:00 41° 304° (WNW) 23:03:12 436.775 MHz
FUNcube-1 02 Sep 23:04:30 23:08:41 83° 77° (ENE) 23:12:58 145.950 - 145.970 MHz USB
KITSAT 1 02 Sep 23:40:06 23:48:12 86° 297° (WNW) 23:56:20 435.175 FM
Sapphire 03 Sep 01:38:39 01:43:22 29° 55° (NE) 01:48:02 437.095 MHz 1200 baud AX-25 AFSK
KITSAT 1 03 Sep 01:39:13 01:44:44 20° 317° (NW) 01:50:18 435.175 FM
PCSat 03 Sep 02:07:21 02:12:41 56° 61° (ENE) 02:17:58 145.825 MHz
Oscar 19 03 Sep 02:09:58 02:14:09 24° 96° (E) 02:18:18 437.125 CW, 437.150 USB
SO-50 03 Sep 02:10:29 02:12:27 13° 107° (ESE) 02:14:26 436.795 FM
Oscar 16 03 Sep 02:44:44 02:49:52 58° 101° (E) 02:54:57 437.025 USB, Beacon 2401.1428
ITAMSAT 1 03 Sep 02:50:07 02:54:21 25° 96° (E) 02:58:34 435.822 SSB
Uribyol 2 03 Sep 02:58:50 03:03:30 33° 98° (E) 03:08:09 436.500 FM
TMSAT-1 03 Sep 03:18:36 03:21:32 15° 92° (E) 03:24:27 436.925 FM
AO-27 03 Sep 03:19:28 03:24:31 51° 100° (E) 03:29:34 436.795 MHz FM
Sapphire 03 Sep 03:21:55 03:26:45 34° 251° (WSW) 03:31:33 437.095 MHz 1200 baud AX-25 AFSK
OPAL 03 Sep 03:43:06 03:44:59 12° 60° (ENE) 03:46:52 ?
AO-Echo 03 Sep 03:48:05 03:52:46 69° 285° (WNW) 03:57:30 ?
SO-50 03 Sep 03:48:07 03:52:28 53° 302° (WNW) 03:56:56 436.795 FM
Oscar 19 03 Sep 03:48:50 03:53:29 34° 290° (WNW) 03:58:05 437.125 CW, 437.150 USB
UOSAT-12 03 Sep 03:51:46 03:52:40 11° 106° (ESE) 03:53:35 437.025 FM, 437.400 FM
PCSat 03 Sep 03:52:18 03:55:34 16° 256° (WSW) 03:58:50 145.825 MHz
JAS-1B 03 Sep 03:52:51 03:59:16 87° 104° (ESE) 04:04:59 435.800 - 435.900 CW/SSB
Gurwin Techsat 1B 03 Sep 04:07:15 04:12:33 67° 102° (ESE) 04:17:48 435.225 FM
Oscar 16 03 Sep 04:25:46 04:28:41 15° 296° (WNW) 04:31:35 437.025 USB, Beacon 2401.1428
ITAMSAT 1 03 Sep 04:29:13 04:33:49 33° 290° (WNW) 04:38:24 435.822 SSB
AO-7 03 Sep 04:36:19 04:42:38 24° 95° (E) 04:48:53 29.400 - 29.500 MHz
Uribyol 2 03 Sep 04:38:34 04:42:47 26° 292° (WNW) 04:46:59 436.500 FM
Uosat F 03 Sep 04:43:00 04:46:12 17° 94° (E) 04:49:23 435.120 FM
TMSAT-1 03 Sep 04:56:34 05:01:44 56° 287° (WNW) 05:06:54 436.925 FM
AO-27 03 Sep 05:00:20 05:03:35 17° 295° (WNW) 05:06:50 436.795 MHz FM
OPAL 03 Sep 05:18:07 05:23:10 75° 256° (WSW) 05:28:19 ?
UOSAT-12 03 Sep 05:27:37 05:32:10 67° 301° (WNW) 05:36:51 437.025 FM, 437.400 FM
JAS-1B 03 Sep 05:46:56 05:48:43 11° 305° (NW) 05:50:27 435.800 - 435.900 CW/SSB
Gurwin Techsat 1B 03 Sep 05:49:21 05:51:53 14° 297° (WNW) 05:54:25 435.225 FM
Uosat F 03 Sep 06:20:24 06:25:10 45° 288° (WNW) 06:29:54 435.120 FM
AO-7 03 Sep 06:27:41 06:35:51 65° 291° (WNW) 06:43:59 29.400 - 29.500 MHz
Hamsat 03 Sep 06:39:39 06:43:18 26° 96° (E) 06:46:54 145.90 MHz
RS-15 03 Sep 06:46:50 06:56:49 40° 107° (ESE) 07:06:34 29.354 - 29.394 USB, Beacon 29.352 USB
STRAND 1 03 Sep 07:08:06 07:13:01 52° 73° (ENE) 07:17:58 ?
JAS-2 03 Sep 07:19:58 07:25:21 70° 102° (ESE) 07:31:18 435.800 - 435.900 CW/SSB, 435.910 FM
Saudisat 1A 03 Sep 07:24:22 07:28:44 58° 58° (ENE) 07:33:03 436.775 MHz
KITSAT 1 03 Sep 07:37:45 07:44:26 28° 48° (NE) 07:51:04 435.175 FM
SO-67 03 Sep 08:08:59 08:12:13 36° 98° (E) 08:15:25 435.3500 MHz FM
Hamsat 03 Sep 08:15:45 08:19:05 22° 290° (WNW) 08:22:23 145.90 MHz
AO-7 03 Sep 08:24:20 08:27:01 12° 310° (NW) 08:29:43 29.400 - 29.500 MHz
STRAND 1 03 Sep 08:49:39 08:52:28 15° 267° (W) 08:55:18 ?
ISS 03 Sep 08:57:39 09:00:43 35° 132° (SE) 09:03:47 145.800 FM
RS-15 03 Sep 08:58:03 09:08:46 53° 306° (NW) 09:19:23 29.354 - 29.394 USB, Beacon 29.352 USB
Saudisat 1A 03 Sep 09:06:23 09:07:46 11° 253° (WSW) 09:09:08 436.775 MHz
JAS-2 03 Sep 09:07:35 09:09:59 13° 295° (WNW) 09:12:27 435.800 - 435.900 CW/SSB, 435.910 FM
PANSAT 03 Sep 09:26:41 09:27:42 11° 158° (SSE) 09:28:44 not established
